TimeCDT,TemperatureF,Dew PointF,Humidity,Sea Level PressureIn,VisibilityMPH,Wind Direction,Wind SpeedMPH,Gust SpeedMPH,PrecipitationIn,Events,Conditions,WindDirDegrees,DateUTC
12:15 AM,44.6,39.2,81,30.19,10.0,Calm,Calm,-,N/A,,Clear,0,2013-05-13 05:15:00
12:35 AM,44.6,39.2,81,30.19,10.0,Calm,Calm,-,N/A,,Clear,0,2013-05-13 05:35:00
12:55 AM,44.6,39.2,81,30.19,10.0,Calm,Calm,-,N/A,,Clear,0,2013-05-13 05:55:00
1:15 AM,44.6,41.0,87,30.19,10.0,Calm,Calm,-,N/A,,Clear,0,2013-05-13 06:15:00
1:35 AM,42.8,41.0,93,30.19,10.0,Calm,Calm,-,N/A,,Clear,0,2013-05-13 06:35:00
1:55 AM,42.8,41.0,93,30.19,10.0,Calm,Calm,-,N/A,,Clear,0,2013-05-13 06:55:00
2:15 AM,42.8,41.0,93,30.18,10.0,Calm,Calm,-,N/A,,Clear,0,2013-05-13 07:15:00
2:35 AM,42.8,39.2,87,30.18,10.0,Calm,Calm,-,N/A,,Clear,0,2013-05-13 07:35:00
2:55 AM,41.0,41.0,100,30.18,10.0,Calm,Calm,-,N/A,,Clear,0,2013-05-13 07:55:00
3:15 AM,41.0,39.2,93,30.19,10.0,Calm,Calm,-,N/A,,Clear,0,2013-05-13 08:15:00
3:35 AM,41.0,39.2,93,30.19,10.0,Calm,Calm,-,N/A,,Clear,0,2013-05-13 08:35:00
3:55 AM,41.0,39.2,93,30.19,10.0,Calm,Calm,-,N/A,,Clear,0,2013-05-13 08:55:00
4:15 AM,41.0,39.2,93,30.20,10.0,Calm,Calm,-,N/A,,Clear,0,2013-05-13 09:15:00
4:35 AM,41.0,39.2,93,30.20,10.0,Calm,Calm,-,N/A,,Clear,0,2013-05-13 09:35:00
4:55 AM,41.0,39.2,93,30.21,10.0,Calm,Calm,-,N/A,,Clear,0,2013-05-13 09:55:00
5:15 AM,41.0,39.2,93,30.21,10.0,Calm,Calm,-,N/A,,Clear,0,2013-05-13 10:15:00
5:35 AM,39.2,37.4,93,30.22,10.0,Calm,Calm,-,N/A,,Clear,0,2013-05-13 10:35:00
5:55 AM,39.2,37.4,93,30.23,10.0,SE,3.5,-,N/A,,Clear,140,2013-05-13 10:55:00
6:15 AM,39.2,37.4,93,30.23,10.0,Calm,Calm,-,N/A,,Clear,0,2013-05-13 11:15:00
6:35 AM,41.0,39.2,93,30.25,10.0,West,3.5,-,N/A,,Clear,280,2013-05-13 11:35:00
6:55 AM,42.8,41.0,93,30.25,10.0,Calm,Calm,-,N/A,,Clear,0,2013-05-13 11:55:00
7:15 AM,44.6,41.0,87,30.26,10.0,East,3.5,-,N/A,,Clear,100,2013-05-13 12:15:00
7:35 AM,46.4,42.8,87,30.26,10.0,Calm,Calm,-,N/A,,Clear,0,2013-05-13 12:35:00
7:55 AM,50.0,42.8,76,30.27,10.0,Calm,Calm,-,N/A,,Clear,0,2013-05-13 12:55:00
8:15 AM,53.6,44.6,72,30.27,10.0,Calm,Calm,-,N/A,,Clear,0,2013-05-13 13:15:00
8:35 AM,55.4,44.6,67,30.27,10.0,Calm,Calm,-,N/A,,Clear,0,2013-05-13 13:35:00
8:55 AM,57.2,42.8,59,30.27,10.0,SE,3.5,-,N/A,,Clear,130,2013-05-13 13:55:00
9:15 AM,59.0,42.8,55,30.28,10.0,Calm,Calm,-,N/A,,Clear,0,2013-05-13 14:15:00
9:35 AM,62.6,39.2,42,30.27,10.0,SE,3.5,-,N/A,,Clear,140,2013-05-13 14:35:00
9:55 AM,62.6,39.2,42,30.28,10.0,SSW,3.5,-,N/A,,Clear,200,2013-05-13 14:55:00
10:15 AM,64.4,37.4,37,30.28,10.0,Calm,Calm,-,N/A,,Clear,0,2013-05-13 15:15:00
10:35 AM,64.4,35.6,34,30.29,10.0,Calm,Calm,-,N/A,,Clear,0,2013-05-13 15:35:00
10:55 AM,66.2,37.4,35,30.29,10.0,Calm,Calm,-,N/A,,Partly Cloudy,0,2013-05-13 15:55:00
11:15 AM,66.2,37.4,35,30.29,10.0,SW,5.8,-,N/A,,Partly Cloudy,230,2013-05-13 16:15:00
11:35 AM,68.0,41.0,37,30.28,10.0,NNW,4.6,-,N/A,,Partly Cloudy,340,2013-05-13 16:35:00
11:55 AM,68.0,39.2,35,30.27,10.0,WSW,6.9,-,N/A,,Clear,240,2013-05-13 16:55:00
12:15 PM,68.0,39.2,35,30.27,10.0,WNW,10.4,-,N/A,,Clear,290,2013-05-13 17:15:00
12:35 PM,68.0,37.4,33,30.26,10.0,North,4.6,-,N/A,,Clear,360,2013-05-13 17:35:00
12:55 PM,69.8,37.4,31,30.25,10.0,North,5.8,-,N/A,,Clear,350,2013-05-13 17:55:00
1:15 PM,69.8,37.4,31,30.24,10.0,West,5.8,-,N/A,,Partly Cloudy,260,2013-05-13 18:15:00
1:35 PM,71.6,39.2,31,30.23,10.0,Calm,Calm,-,N/A,,Clear,0,2013-05-13 18:35:00
1:55 PM,71.6,41.0,33,30.23,10.0,West,4.6,-,N/A,,Clear,280,2013-05-13 18:55:00
2:15 PM,71.6,41.0,33,30.22,10.0,WSW,8.1,-,N/A,,Clear,240,2013-05-13 19:15:00
2:35 PM,71.6,37.4,29,30.21,10.0,South,3.5,-,N/A,,Clear,170,2013-05-13 19:35:00
3:35 PM,71.6,42.8,35,30.19,10.0,NNW,3.5,-,N/A,,Mostly Cloudy,340,2013-05-13 20:35:00
3:55 PM,71.6,39.2,31,30.19,10.0,WSW,4.6,-,N/A,,Overcast,250,2013-05-13 20:55:00
4:15 PM,73.4,42.8,33,30.18,10.0,WSW,8.1,-,N/A,,Mostly Cloudy,240,2013-05-13 21:15:00
4:35 PM,73.4,44.6,36,30.18,10.0,WNW,5.8,-,N/A,,Partly Cloudy,290,2013-05-13 21:35:00
4:55 PM,73.4,44.6,36,30.17,10.0,West,4.6,-,N/A,,Clear,260,2013-05-13 21:55:00
5:15 PM,73.4,44.6,36,30.16,10.0,SW,9.2,-,N/A,,Scattered Clouds,220,2013-05-13 22:15:00
5:35 PM,71.6,46.4,41,30.16,10.0,SW,4.6,-,N/A,,Mostly Cloudy,220,2013-05-13 22:35:00
5:55 PM,73.4,46.4,38,30.15,10.0,SW,5.8,-,N/A,,Mostly Cloudy,220,2013-05-13 22:55:00
6:55 PM,69.8,46.4,43,30.15,10.0,SW,4.6,-,N/A,,Clear,230,2013-05-13 23:55:00
7:15 PM,69.8,46.4,43,30.16,10.0,SSW,4.6,-,N/A,,Clear,210,2013-05-14 00:15:00
7:35 PM,66.2,48.2,52,30.16,10.0,SW,5.8,-,N/A,,Clear,220,2013-05-14 00:35:00
7:55 PM,66.2,46.4,49,30.16,10.0,SSW,4.6,-,N/A,,Clear,210,2013-05-14 00:55:00
8:15 PM,64.4,50.0,59,30.17,10.0,SW,3.5,-,N/A,,Clear,230,2013-05-14 01:15:00
8:35 PM,60.8,50.0,68,30.17,10.0,Calm,Calm,-,N/A,,Clear,0,2013-05-14 01:35:00
8:55 PM,59.0,50.0,72,30.17,10.0,Calm,Calm,-,N/A,,Clear,0,2013-05-14 01:55:00
9:15 PM,59.0,51.8,77,30.18,10.0,Calm,Calm,-,N/A,,Clear,0,2013-05-14 02:15:00
9:35 PM,57.2,50.0,77,30.18,10.0,Calm,Calm,-,N/A,,Clear,0,2013-05-14 02:35:00
9:55 PM,57.2,50.0,77,30.19,10.0,Calm,Calm,-,N/A,,Clear,0,2013-05-14 02:55:00
10:15 PM,57.2,53.6,88,30.19,10.0,Calm,Calm,-,N/A,,Clear,0,2013-05-14 03:15:00
10:35 PM,57.2,51.8,82,30.18,10.0,SSE,3.5,-,N/A,,Clear,150,2013-05-14 03:35:00
10:55 PM,55.4,50.0,82,30.18,10.0,East,5.8,-,N/A,,Clear,100,2013-05-14 03:55:00
11:15 PM,55.4,51.8,88,30.18,10.0,Calm,Calm,-,N/A,,Clear,0,2013-05-14 04:15:00
11:35 PM,53.6,50.0,88,30.18,10.0,Calm,Calm,-,N/A,,Clear,0,2013-05-14 04:35:00
11:55 PM,55.4,50.0,82,30.18,10.0,Calm,Calm,-,N/A,,Clear,0,2013-05-14 04:55:00